TimeCDT,TemperatureF,Dew PointF,Humidity,Sea Level PressureIn,VisibilityMPH,Wind Direction,Wind SpeedMPH,Gust SpeedMPH,PrecipitationIn,Events,Conditions,WindDirDegrees,DateUTC
12:15 AM,54.9,49.3,81,29.75,10.0,NE,15.0,-,N/A,,Clear,50,2013-09-27 05:15:00
12:35 AM,54.0,48.7,82,29.76,10.0,NE,13.8,-,N/A,,Clear,50,2013-09-27 05:35:00
12:55 AM,53.6,48.6,83,29.76,10.0,NE,12.7,17.3,N/A,,Clear,50,2013-09-27 05:55:00
1:15 AM,52.7,48.4,85,29.75,10.0,NE,11.5,-,N/A,,Clear,50,2013-09-27 06:15:00
1:35 AM,52.2,48.2,86,29.76,10.0,NE,13.8,-,N/A,,Clear,40,2013-09-27 06:35:00
1:55 AM,50.9,47.3,87,29.76,10.0,NE,10.4,-,N/A,,Clear,40,2013-09-27 06:55:00
2:15 AM,50.0,45.5,85,29.76,10.0,NNE,11.5,-,N/A,,Clear,30,2013-09-27 07:15:00
2:35 AM,49.1,44.8,85,29.77,10.0,NE,11.5,-,N/A,,Clear,40,2013-09-27 07:35:00
2:55 AM,48.4,44.6,87,29.76,10.0,NE,10.4,-,N/A,,Clear,40,2013-09-27 07:55:00
3:15 AM,47.8,44.1,87,29.77,10.0,NNE,10.4,-,N/A,,Clear,30,2013-09-27 08:15:00
3:35 AM,47.3,43.9,88,29.77,10.0,North,9.2,-,N/A,,Clear,10,2013-09-27 08:35:00
3:55 AM,46.6,43.7,90,29.78,10.0,North,9.2,-,N/A,,Clear,360,2013-09-27 08:55:00
4:15 AM,46.8,44.1,90,29.78,10.0,North,11.5,-,N/A,,Mostly Cloudy,10,2013-09-27 09:15:00
4:35 AM,47.3,44.2,89,29.77,10.0,NNE,16.1,-,N/A,,Overcast,30,2013-09-27 09:35:00
4:55 AM,47.1,43.9,88,29.78,10.0,North,15.0,-,N/A,,Overcast,10,2013-09-27 09:55:00
5:15 AM,46.8,43.7,89,29.78,10.0,North,17.3,-,N/A,,Overcast,10,2013-09-27 10:15:00
5:35 AM,46.2,42.8,88,29.78,10.0,NNE,19.6,24.2,N/A,,Overcast,30,2013-09-27 10:35:00
5:55 AM,46.0,42.8,88,29.79,10.0,North,12.7,18.4,N/A,,Overcast,10,2013-09-27 10:55:00
6:15 AM,45.7,42.3,88,29.80,10.0,North,16.1,-,N/A,,Overcast,10,2013-09-27 11:15:00
6:35 AM,45.5,42.1,88,29.80,7.0,North,16.1,19.6,N/A,,Overcast,360,2013-09-27 11:35:00
6:55 AM,44.8,42.3,91,29.81,5.0,North,13.8,-,N/A,,Overcast,10,2013-09-27 11:55:00
7:15 AM,44.1,42.1,93,29.81,3.0,North,17.3,-,N/A,Rain,Light Rain,360,2013-09-27 12:15:00
7:35 AM,43.9,42.3,94,29.82,3.0,North,10.4,17.3,N/A,,Light Drizzle,360,2013-09-27 12:35:00
7:55 AM,43.2,41.5,94,29.80,3.0,NNE,12.7,-,N/A,,Light Drizzle,20,2013-09-27 12:55:00
8:15 AM,43.0,41.4,94,29.82,2.5,NNE,17.3,-,N/A,,Light Drizzle,20,2013-09-27 13:15:00
8:35 AM,42.8,41.2,94,29.83,3.0,NNE,13.8,-,N/A,,Overcast,30,2013-09-27 13:35:00
8:55 AM,43.0,41.5,95,29.83,2.0,North,11.5,-,N/A,,Overcast,360,2013-09-27 13:55:00
9:15 AM,42.8,41.2,94,29.84,2.0,North,10.4,-,N/A,,Overcast,360,2013-09-27 14:15:00
9:35 AM,42.8,41.0,93,29.85,2.0,North,12.7,-,N/A,,Overcast,10,2013-09-27 14:35:00
9:55 AM,42.8,41.2,94,29.84,2.0,North,13.8,-,N/A,Rain,Rain,360,2013-09-27 14:55:00
10:15 AM,43.0,41.5,95,29.85,1.8,North,11.5,-,N/A,,Light Drizzle,360,2013-09-27 15:15:00
10:35 AM,43.2,41.5,94,29.85,2.0,North,10.4,-,N/A,,Overcast,360,2013-09-27 15:35:00
10:55 AM,42.8,41.0,93,29.87,3.0,North,12.7,-,N/A,,Overcast,10,2013-09-27 15:55:00
11:15 AM,42.8,40.6,92,29.87,7.0,North,10.4,-,N/A,,Overcast,360,2013-09-27 16:15:00
11:35 AM,42.6,40.6,93,29.87,4.0,North,9.2,-,N/A,,Overcast,350,2013-09-27 16:35:00
11:55 AM,42.8,41.0,93,29.86,4.0,North,11.5,-,N/A,,Overcast,350,2013-09-27 16:55:00
12:15 PM,42.8,41.0,93,29.86,5.0,North,13.8,-,N/A,,Overcast,10,2013-09-27 17:15:00
12:35 PM,43.5,41.2,91,29.84,7.0,North,13.8,-,N/A,,Overcast,10,2013-09-27 17:35:00
12:55 PM,43.9,41.4,91,29.84,10.0,North,16.1,19.6,N/A,,Overcast,10,2013-09-27 17:55:00
1:15 PM,43.9,41.2,90,29.83,10.0,North,15.0,-,N/A,,Overcast,360,2013-09-27 18:15:00
1:35 PM,44.2,41.4,90,29.83,10.0,North,12.7,-,N/A,,Overcast,10,2013-09-27 18:35:00
1:55 PM,44.6,41.7,90,29.84,10.0,North,13.8,-,N/A,,Overcast,360,2013-09-27 18:55:00
2:15 PM,44.2,41.2,89,29.86,10.0,North,9.2,-,N/A,,Overcast,10,2013-09-27 19:15:00
2:35 PM,43.5,40.8,90,29.88,10.0,North,10.4,-,N/A,,Overcast,360,2013-09-27 19:35:00
2:55 PM,43.3,40.6,90,29.88,10.0,North,9.2,-,N/A,,Overcast,350,2013-09-27 19:55:00
3:15 PM,43.5,41.4,92,29.86,10.0,North,10.4,-,N/A,,Overcast,360,2013-09-27 20:15:00
3:35 PM,43.2,41.0,92,29.85,5.0,North,10.4,-,N/A,,Overcast,360,2013-09-27 20:35:00
3:55 PM,44.1,41.2,90,29.85,10.0,North,9.2,-,N/A,Rain,Light Rain,10,2013-09-27 20:55:00
4:15 PM,43.9,41.4,91,29.85,10.0,NE,10.4,-,N/A,,Overcast,40,2013-09-27 21:15:00
4:35 PM,43.9,41.4,91,29.84,10.0,NNE,11.5,-,N/A,Rain,Light Rain,20,2013-09-27 21:35:00
4:55 PM,44.1,41.4,90,29.84,10.0,NNE,11.5,-,N/A,Rain,Light Rain,20,2013-09-27 21:55:00
5:35 PM,43.5,41.5,93,29.87,7.0,North,10.4,-,0.03,Rain,Rain,10,2013-09-27 22:35:00
5:55 PM,43.7,41.9,93,29.89,5.0,NNE,9.2,-,0.05,Rain,Rain,20,2013-09-27 22:55:00
6:15 PM,43.3,41.9,95,29.87,4.0,North,11.5,-,0.05,Rain,Heavy Rain,360,2013-09-27 23:15:00
6:35 PM,43.2,41.5,94,29.90,10.0,NNE,10.4,-,0.08,Rain,Light Rain,30,2013-09-27 23:35:00
6:55 PM,43.3,41.9,95,29.92,4.0,NNW,11.5,17.3,0.13,Rain,Rain,330,2013-09-27 23:55:00
7:15 PM,43.5,41.7,93,29.93,5.0,NNW,9.2,-,0.06,Rain,Rain,340,2013-09-28 00:15:00
7:35 PM,43.7,41.9,93,29.91,10.0,NNW,9.2,-,0.06,,Overcast,340,2013-09-28 00:35:00
7:55 PM,43.7,41.5,92,29.91,10.0,NNW,9.2,-,0.06,,Overcast,340,2013-09-28 00:55:00
8:15 PM,43.3,41.2,92,29.92,10.0,North,10.4,-,N/A,,Overcast,350,2013-09-28 01:15:00
8:35 PM,43.3,41.2,92,29.91,10.0,North,11.5,-,N/A,,Overcast,360,2013-09-28 01:35:00
8:55 PM,43.2,41.2,93,29.91,10.0,NNW,10.4,-,N/A,,Overcast,340,2013-09-28 01:55:00
9:15 PM,43.2,41.0,92,29.93,10.0,NW,8.1,-,N/A,,Overcast,310,2013-09-28 02:15:00
9:35 PM,43.2,40.8,91,29.94,10.0,NNW,9.2,-,N/A,,Overcast,330,2013-09-28 02:35:00
9:55 PM,43.2,41.0,92,29.94,10.0,NNW,11.5,-,N/A,,Overcast,340,2013-09-28 02:55:00
10:15 PM,42.8,40.3,91,29.95,10.0,NNW,12.7,-,N/A,,Overcast,330,2013-09-28 03:15:00
10:35 PM,43.0,40.3,90,29.96,10.0,NW,13.8,-,N/A,,Overcast,320,2013-09-28 03:35:00
10:55 PM,42.1,39.2,90,29.95,10.0,NW,13.8,-,N/A,,Overcast,320,2013-09-28 03:55:00
11:15 PM,41.9,38.8,89,29.97,10.0,NW,12.7,-,N/A,,Overcast,320,2013-09-28 04:15:00
11:35 PM,41.2,38.3,89,29.97,10.0,NW,10.4,-,N/A,,Overcast,320,2013-09-28 04:35:00
11:55 PM,41.0,38.3,90,29.98,10.0,NNW,10.4,-,N/A,,Overcast,330,2013-09-28 04:55:00